GW2926 Weather Reports


Display with metric or nautical units.
time (UTC)temp
F
wind
direction
speed
MPH
gust
MPH
rain 1hr
in
rain 24hr
in
rain mn
in
humidity
%
barometer
mb
20260505003042 74 136 1.0 4.0 0.00 0.00 0.00 56 1008.1
20260505001538 75 165 0.0 7.0 0.00 0.00 0.00 54 1008.1
20260505000044 76 190 1.0 8.0 0.00 0.00 0.00 52 1008.2
20260504234533 76 283 2.0 11.0 0.00 0.00 0.00 50 1008.3
20260504233040 77 278 3.0 8.0 0.00 0.00 0.00 50 1008.5
20260504231544 77 352 5.0 11.0 0.00 0.00 0.00 48 1008.6
20260504230044 78 273 4.0 13.0 0.00 0.00 0.00 47 1008.7
20260504224537 79 213 3.0 10.0 0.00 0.00 0.00 47 1008.9
20260504223045 79 232 4.0 12.0 0.00 0.00 0.00 47 1008.7
20260504221553 79 276 4.0 13.0 0.00 0.00 0.00 47 1008.8
20260504220037 79 236 5.0 15.0 0.00 0.00 0.00 46 1009.0
20260504214537 80 293 3.0 16.0 0.00 0.00 0.00 44 1009.1
20260504213047 81 264 5.0 11.0 0.00 0.00 0.00 44 1009.1
20260504211544 81 267 5.0 14.0 0.00 0.00 0.00 45 1009.4
20260504210038 80 43 5.0 13.0 0.00 0.00 0.00 46 1009.4
20260504204537 80 210 7.0 15.0 0.00 0.00 0.00 44 1009.7
20260504203046 80 268 4.0 17.0 0.00 0.00 0.00 46 1009.9
20260504201540 80 325 5.0 18.0 0.00 0.00 0.00 46 1010.1
20260504200038 80 236 6.0 17.0 0.00 0.00 0.00 45 1010.2
20260504194543 80 111 6.0 16.0 0.00 0.00 0.00 44 1010.6
20260504193037 79 259 5.0 20.0 0.00 0.00 0.00 45 1010.9
20260504191540 79 5 6.0 17.0 0.00 0.00 0.00 46 1011.0
20260504190038 79 240 6.0 16.0 0.00 0.00 0.00 47 1011.2
20260504184537 79 15 6.0 15.0 0.00 0.00 0.00 45 1011.3
20260504183036 79 192 6.0 14.0 0.00 0.00 0.00 46 1011.5
20260504181538 78 267 5.0 15.0 0.00 0.00 0.00 48 1011.6
20260504180045 77 187 7.0 19.0 0.00 0.00 0.00 46 1011.9
20260504174543 78 192 6.0 17.0 0.00 0.00 0.00 45 1012.1
20260504173037 77 293 6.0 17.0 0.00 0.00 0.00 46 1012.4
20260504171539 77 271 7.0 18.0 0.00 0.00 0.00 46 1012.6
20260504081545 61 0 0.0 2.0 0.00 0.00 0.00 74 1013.4
20260504044539 66 269 0.0 3.0 0.00 0.00 0.00 65 1014.3
20260504043037 66 257 1.0 6.0 0.00 0.00 0.00 64 1014.3
20260504041535 67 0 1.0 4.0 0.00 0.00 0.00 63 1014.5
20260504040100 67 259 1.0 4.0 0.00 0.00 0.00 63 1014.7
20260504034537 66 0 0.0 3.0 0.00 0.00 0.00 64 1014.7
20260504033038 66 198 0.0 2.0 0.00 0.00 0.00 64 1014.6
20260504031537 67 0 0.0 4.0 0.00 0.00 0.00 64 1014.6
20260504030036 67 0 0.0 4.0 0.00 0.00 0.00 64 1014.6
20260504024539 67 0 0.0 3.0 0.00 0.00 0.00 63 1014.5
20260504023037 67 200 0.0 2.0 0.00 0.00 0.00 63 1014.5
20260504021537 68 164 0.0 3.0 0.00 0.00 0.00 62 1014.5
20260504020037 69 0 0.0 2.0 0.00 0.00 0.00 61 1014.5
20260504014542 70 0 0.0 2.0 0.00 0.00 0.00 59 1014.4
20260504013035 70 0 0.0 4.0 0.00 0.00 0.00 57 1014.4
20260504011540 71 0 0.0 2.0 0.00 0.00 0.00 55 1014.4
20260504010037 73 0 0.0 3.0 0.00 0.00 0.00 53 1014.3
20260504004544 74 182 0.0 3.0 0.00 0.00 0.00 51 1014.3